Showing default

YAOGAN-39 01B, 57728

Orbit data source: Space-Track

YAOGAN-39 01B, 57728 is a payload satellite owned by PLA GAD (CN) in LEO that was launched on Thu, 31 Aug 2023 UTC via a CHANG ZHENG 2D launch vehicle from the Xichang Space Center, China (XSC). Payloads include a variety of satellites, spacecraft, and rockets equipped with specific instruments for various scientific and technological missions. These include communications satellites like Starlink; space stations such as the ISS; scientific satellites like the Hubble; Earth observation satellites from companies like Planet Labs, Umbra, and HawkEye 360; GPS; miniature CubeSats for education and research; and military/defense satellites.

Loading next visibility...
YAOGAN-39 01B details
Identifier
57728, 2023-130B
Orbit
LEO
Last TLE update10 hours ago
Origin
Flag of CNPLA GAD (CN / PRC)
ManufacturerSAST
MissionOperational Defense Sigint
Bus & MotorUnknown
Mass~300 kg wet, ~300 kg dry
Launch date (UTC)
2023-08-31 (1 year ago)
Launch vehicle
CHANG ZHENG 2D
Launch site
Xichang Space Center, China (XSC)
Object type
Payload
Rocket body
Debris
Shape & HBRBox + 2 Pan, 5 m
Radar Cross Section11.063 m², Large (>1 m²)

Expand to show TLE details & history

TLE from 10 hours ago
0 YAOGAN-39 01B
1 57728U 23130B   24356.30781361  .00019510  00000-0  81439-3 0  9991
2 57728  34.9954 302.6963 0010780 251.4183 108.5360 15.22735297 72919
Epoch: 2024-12-21T07:23Z
Definitive object data (Epoch: 2024-12-21T07:23:15.095Z)
Latitude-0.00007°
Longitude101.52246°
Altitude498.864 km
Speed7.616 km/s
True Right ascension20h 10m 47s
True Declination0° 00' 00"
Sunlit
Object was in daylight at TLE epoch
Visualization TLE readout
Latitude-24.14731°
Longitude-41.65221°
Altitude496.112 km
Speed7.621 km/s
Apparent Right ascension08h 11m 18s
Apparent Declination-39° 59' 58"
Sunlit
Object is in daylight
Visualization observer readout
Local Sidereal Time16:51:28
Azimuth253.227° W
Elevation-52.228°
Doppler factor1
Orbital elements
Apogee altitude508.26 km
Perigee altitude493.429 km
Semi-major axis6,878.982 km
Eccentricity0.001078
Inclination34.9954°
RAAN302.6963°
Arg. of periapsis251.4183°
True anomaly108.65307°
Mean anomaly108.536°
Eccentric anomaly108.59454°
Mean motion3.80414 °/min
BSTAR0.00081439
Orbital period94.63 mins
Loading maneuver chart data...
Loading historical data...
Loading historical data...
Loading historical data...
Loading historical data...
Loading historical data...
Loading historical data...
Loading historical data...

YAOGAN-39 01B Visibility forecast

Observer location: undefined°, undefined

Span
Click to sort rows by Start time (UTC) header in descending order
Start Az.
Max El. time (UTC)
Max El. Az.
Max El.
End time (UTC)
End Az.
6 mins2024-12-22 00:56:47.779Z220.367° SW2024-12-22 00:59:47.779Z168.95° S23.384°2024-12-22 01:02:47.779Z110.81° ESE
5 mins2024-12-22 02:37:47.779Z229.516° WSW2024-12-22 02:39:47.779Z164.149° S31.762°2024-12-22 02:42:47.779Z110.965° ESE
5 mins2024-12-22 04:16:47.779Z241.797° WSW2024-12-22 04:18:47.779Z197.739° SSW25.342°2024-12-22 04:21:47.779Z137.962° SSE
|